CAPE
8 6 2 5 9 7 5 4 1 0 0 0 0 0 0 0 0 0 0 0 10 0 0 0 0 0 0 7 0 124 50 23 5 85 45 0 0 14 8 17 31 0 0 0 0 0 0
4 2 2 4 3 2 3 1 3 1 0 0 0 0 0 0 0 0 0 0 0 0 0 0 0 0 0 7 14 21 15 8 0 20 0 0 0 24 7 14 24 4 0 0 0 0 0
0 2 3 2 3 3 4 2 3 1 0 0 0 0 0 0 0 0 0 0 0 0 0 0 0 0 0 0 13 18 18 27 8 0 0 0 1 9 5 13 39 38 0 0 0 0 0
1 2 3 3 4 3 3 1 2 1 0 0 0 0 0 0 0 0 0 0 0 0 0 0 0 1 0 1 0 0 33 21 12 0 0 0 0 0 0 0 38 11 2 0 0 0 0
3 3 2 1 1 1 2 3 1 1 0 0 0 0 0 0 0 0 0 0 0 0 0 0 1 17 5 0 0 0 0 0 0 0 0 12 0 0 15 3 36 9 0 7 0 0 0
1 4 2 0 0 0 0 2 3 1 1 0 0 0 0 0 0 0 0 0 0 0 0 0 0 0 0 0 0 0 2 2 0 10 28 34 0 0 19 24 14 0 0 4 0 0 0
0 2 2 1 0 0 0 1 4 1 0 0 0 0 0 0 0 0 0 0 0 0 0 0 0 0 1 0 0 0 1 2 19 32 26 3 37 19 17 12 0 0 0 0 0 0 0
1 1 1 1 0 0 0 0 2 1 1 0 0 0 0 0 0 0 0 0 0 0 0 0 0 0 0 0 0 0 0 6 27 18 27 28 2 0 0 1 0 12 13 0 0 0 0
1 1 0 0 0 0 0 0 0 2 1 0 0 0 0 0 0 0 0 0 0 0 0 0 0 0 0 0 0 0 0 0 3 18 8 0 0 0 0 1 0 0 0 0 0 0 0
0 0 0 0 0 0 0 0 0 0 1 0 0 0 0 0 0 0 0 0 0 0 0 0 0 0 0 0 0 0 0 0 0 0 0 0 0 0 0 0 0 0 0 0 0 0 0
2 0 0 0 0 0 0 0 0 0 0 0 0 0 0 0 0 0 0 0 0 0 0 0 0 0 0 0 0 0 0 0 0 0 0 0 0 0 0 0 0 0 0 0 0 0 0
0 0 0 0 0 0 0 0 0 0 0 0 0 0 0 0 0 0 0 0 0 0 0 0 0 0 0 0 0 0 0 0 0 0 0 0 0 0 0 0 0 0 0 0 0 0 0
0 0 0 0 0 0 0 0 0 0 0 0 0 0 0 0 0 0 0 0 0 0 0 0 0 0 0 0 0 0 0 0 0 0 0 0 0 0 0 0 0 0 0 0 0 0 0
0 0 0 0 0 0 0 0 0 0 0 0 0 0 0 0 0 0 0 0 0 0 0 0 0 0 0 0 0 0 0 0 0 0 0 0 0 0 0 0 0 0 0 0 0 0 0
0 0 0 0 0 0 0 0 0 0 0 0 0 0 0 0 0 0 0 0 0 0 0 0 0 0 0 0 0 0 0 0 0 0 0 0 0 0 0 0 0 0 0 0 0 0 0
0 0 0 0 0 0 0 0 0 0 0 0 0 0 0 0 0 0 0 0 0 0 0 0 0 0 0 0 0 0 0 0 0 0 0 0 0 0 0 0 0 0 0 0 0 0 0
0 0 0 0 0 0 0 0 0 0 0 0 0 0 0 0 0 0 0 0 0 0 0 0 0 0 0 0 0 0 0 0 0 0 0 0 0 0 0 0 0 0 0 0 0 0 0
0 0 0 0 0 0 0 0 0 0 0 0 0 0 0 0 0 0 0 0 0 0 0 0 0 0 0 0 0 0 0 0 0 0 0 0 0 0 0 0 0 0 0 0 0 0 0
0 0 0 0 0 0 0 0 0 0 0 0 0 0 0 0 0 0 0 0 0 0 0 0 0 0 0 0 0 0 0 0 0 0 0 0 0 0 0 0 0 0 0 0 0 0 0
0 0 0 0 0 0 0 0 0 0 0 0 0 0 0 0 0 0 0 0 0 0 0 0 0 0 0 0 0 0 0 0 0 0 0 0 0 0 0 0 0 0 0 0 0 0 0
0 0 0 0 0 0 0 0 0 0 0 0 0 0 0 0 0 0 0 0 0 0 0 0 0 0 0 0 0 0 0 0 0 0 0 0 0 0 0 0 0 0 0 0 0 0 0
0 0 0 0 0 0 0 0 0 0 0 0 0 0 0 0 0 0 0 0 0 0 0 0 0 0 0 0 0 0 0 0 0 0 0 0 0 0 0 0 0 0 0 0 0 0 0
0 0 0 0 0 0 0 0 0 0 0 0 0 0 0 0 0 0 0 0 0 0 0 0 0 0 0 0 0 0 0 0 0 0 0 0 0 0 0 0 0 0 0 0 0 0 0
0 0 0 0 1 0 0 0 0 0 0 0 0 0 0 0 0 0 0 0 0 0 0 0 0 0 0 0 0 0 0 0 0 0 0 0 0 0 0 0 0 0 0 0 0 0 0
0 0 0 2 2 0 0 0 0 0 0 0 0 0 0 0 0 0 0 0 0 0 0 0 0 0 0 0 0 0 0 0 0 0 0 0 0 0 0 0 0 0 0 0 0 0 0
7 1 0 1 4 0 1 0 0 0 0 0 0 0 0 0 0 0 0 0 0 0 0 0 0 0 0 0 0 0 0 0 0 0 0 0 0 0 0 0 0 0 0 0 0 0 0
7 7 6 6 9 6 1 1 0 0 0 0 0 0 0 0 0 0 0 0 0 0 0 0 0 0 0 0 0 0 0 0 0 0 0 0 0 0 0 0 0 0 0 0 0 0 0
21 15 13 2 1 1 0 0 0 0 0 0 0 0 0 0 0 0 0 0 0 0 0 0 0 0 0 0 0 0 0 0 0 0 0 0 0 0 0 0 0 0 0 0 0 0 0
6 0 0 0 0 0 0 0 0 0 0 0 0 0 0 0 0 0 0 0 0 0 0 0 0 0 0 0 0 0 0 0 0 0 0 0 0 0 0 0 0 0 0 0 0 0 0
CIN
-0 -0 -0 -0 -0 -0 -0 -0 -0 -0 -0 -0 -0 -0 -0 -0 -0 -0 -0 -0 -167 -0 -0 -0 -0 -0 -0 -3 -0 -5 -14 -38 -15 -13 -17 -0 -0 -0 -1 -1 -1 -0 -0 -0 -0 -0 -0
-0 -0 -0 -0 -0 -0 -0 -0 -0 -0 -0 -0 -0 -0 -0 -0 -0 -0 -0 -0 -0 -0 -0 -0 -0 -0 -0 -5 -3 -19 -24 -32 -0 -34 -0 -0 -0 -5 -6 -4 -8 -15 -0 -0 -0 -0 -0
-0 -1 -0 -0 -0 -0 -0 -0 -0 -0 -0 -0 -0 -0 -0 -0 -0 -0 -0 -0 -0 -0 -0 -0 -0 -0 -1 -0 -19 -13 -13 -12 -22 -0 -0 -0 -10 -7 -29 -9 -7 -10 -0 -0 -0 -0 -0
-0 -0 -0 -0 -0 -0 -0 -0 -0 -0 -0 -0 -0 -0 -0 -0 -0 -0 -0 -0 -0 -0 -0 -0 -0 -24 -0 -56 -0 -0 -6 -15 -12 -0 -0 -0 -0 -1 -13 -0 -11 -29 -46 -0 -0 -0 -0
-0 -0 -0 -0 -0 -0 -0 -0 -0 -0 -0 -0 -0 -0 -0 -0 -0 -0 -0 -0 -0 -0 -0 -0 -1 -7 -3 -0 -0 -0 -0 -0 -0 -0 -0 -36 -0 -0 -16 -6 -7 -32 -5 -47 -0 -0 -0
-0 -0 -0 -0 -0 -0 -0 -0 -0 -0 -0 -0 -0 -0 -0 -0 -0 -0 -0 -0 -0 -0 -0 -0 -1 -7 -0 -0 -0 -0 -24 -38 -0 -38 -66 -61 -6 -0 -9 -4 -12 -0 -0 -26 -0 -0 -0
-0 -0 -0 -0 -0 -0 -0 -0 -0 -0 -0 -0 -0 -0 -0 -0 -0 -0 -0 -0 -0 -0 -0 -0 -0 -0 -5 -0 -0 -0 -78 -51 -71 -53 -4 -53 -15 -0 -17 -32 -0 -0 -0 -0 -0 -0 -0
-0 -0 -0 -0 -0 -0 -0 -0 -0 -0 -0 -0 -0 -0 -0 -0 -0 -0 -0 -0 -0 -0 -0 -0 -0 -0 -0 -0 -0 -0 -0 -12 -22 -7 -9 -18 -6 -0 -0 -32 -0 -48 -23 -0 -0 -0 -0
-0 -0 -0 -0 -0 -0 -0 -0 -0 -0 -0 -0 -0 -0 -0 -0 -0 -0 -0 -0 -0 -0 -0 -0 -0 -0 -0 -0 -0 -0 -0 -0 -7 -7 -3 -0 -0 -0 -4 -26 -0 -0 -5 -0 -0 -0 -0
-0 -0 -0 -0 -0 -0 -0 -0 -0 -0 -0 -0 -0 -0 -0 -0 -0 -0 -0 -0 -0 -0 -0 -0 -0 -0 -0 -0 -0 -0 -0 -0 -0 -0 -0 -0 -0 -0 -0 -0 -0 -0 -0 -0 -0 -0 -0
-0 -0 -0 -0 -0 -0 -0 -0 -0 -0 -0 -0 -0 -0 -0 -0 -0 -0 -0 -0 -0 -0 -0 -0 -0 -0 -0 -0 -0 -0 -0 -0 -0 -0 -0 -0 -0 -0 -0 -0 -0 -0 -0 -0 -0 -0 -0
-0 -0 -0 -0 -0 -0 -0 -0 -0 -0 -0 -0 -0 -0 -0 -0 -0 -0 -0 -0 -0 -0 -0 -0 -0 -0 -0 -0 -0 -0 -0 -0 -0 -0 -0 -0 -0 -0 -0 -0 -0 -0 -0 -0 -0 -0 -0
-0 -0 -0 -0 -0 -0 -0 -0 -0 -0 -0 -0 -0 -0 -0 -0 -0 -0 -0 -0 -0 -0 -0 -0 -0 -0 -0 -0 -0 -0 -0 -0 -0 -0 -0 -0 -0 -0 -0 -0 -0 -0 -0 -0 -0 -0 -0
-0 -0 -0 -0 -0 -0 -0 -0 -0 -0 -0 -0 -0 -0 -0 -0 -0 -0 -0 -0 -0 -0 -0 -0 -0 -0 -0 -0 -0 -0 -0 -0 -0 -0 -0 -0 -0 -0 -0 -0 -0 -0 -0 -0 -0 -0 -0
-0 -0 -0 -0 -0 -0 -0 -0 -0 -0 -0 -0 -0 -0 -0 -0 -0 -0 -0 -0 -0 -0 -0 -0 -0 -0 -0 -0 -0 -0 -0 -0 -0 -0 -0 -0 -0 -0 -0 -0 -0 -0 -0 -0 -0 -0 -0
-0 -0 -0 -0 -0 -0 -0 -0 -0 -0 -0 -0 -0 -0 -0 -0 -0 -0 -0 -0 -0 -0 -0 -0 -0 -0 -0 -0 -0 -0 -0 -0 -0 -0 -0 -0 -0 -0 -0 -0 -0 -0 -0 -0 -0 -0 -0
-0 -0 -0 -0 -0 -0 -0 -0 -0 -0 -0 -0 -0 -0 -0 -0 -0 -0 -0 -0 -0 -0 -0 -0 -0 -0 -0 -0 -0 -0 -0 -0 -0 -0 -0 -0 -0 -0 -0 -0 -0 -0 -0 -0 -0 -0 -0
-0 -0 -0 -0 -0 -0 -0 -0 -0 -0 -0 -0 -0 -0 -0 -0 -0 -0 -0 -0 -0 -0 -0 -0 -0 -0 -0 -0 -0 -0 -0 -0 -0 -0 -0 -0 -0 -0 -0 -0 -0 -0 -0 -0 -0 -0 -0
-0 -0 -0 -0 -0 -0 -0 -0 -0 -0 -0 -0 -0 -0 -0 -0 -0 -0 -0 -0 -0 -0 -0 -0 -0 -0 -0 -0 -0 -0 -0 -0 -0 -0 -0 -0 -0 -0 -0 -0 -0 -0 -0 -0 -0 -0 -0
-0 -0 -0 -0 -0 -0 -0 -0 -0 -0 -0 -0 -0 -0 -0 -0 -0 -0 -0 -0 -0 -0 -0 -0 -0 -0 -0 -0 -0 -0 -0 -0 -0 -0 -0 -0 -0 -0 -0 -0 -0 -0 -0 -0 -0 -0 -0
-0 -0 -0 -0 -0 -0 -0 -0 -0 -0 -0 -0 -0 -0 -0 -0 -0 -0 -0 -0 -0 -0 -0 -0 -0 -0 -0 -0 -0 -0 -0 -0 -0 -0 -0 -0 -0 -0 -0 -0 -0 -0 -0 -0 -0 -0 -0
-0 -0 -0 -0 -0 -0 -0 -0 -0 -0 -0 -0 -0 -0 -0 -0 -0 -0 -0 -0 -0 -0 -0 -0 -0 -0 -0 -0 -0 -0 -0 -0 -0 -0 -0 -0 -0 -0 -0 -0 -0 -0 -0 -0 -0 -0 -0
-0 -0 -0 -0 -0 -0 -0 -0 -0 -0 -0 -0 -0 -0 -0 -0 -0 -0 -0 -0 -0 -0 -0 -0 -0 -0 -0 -0 -0 -0 -0 -0 -0 -0 -0 -0 -0 -0 -0 -0 -0 -0 -0 -0 -0 -0 -0
-0 -0 -0 -0 -2 -0 -0 -0 -0 -0 -0 -0 -0 -0 -0 -0 -0 -0 -0 -0 -0 -0 -0 -0 -0 -0 -0 -0 -0 -0 -0 -0 -0 -0 -0 -0 -0 -0 -0 -0 -0 -0 -0 -0 -0 -0 -0
-0 -0 -0 -5 -1 -0 -0 -0 -0 -0 -0 -0 -0 -0 -0 -0 -0 -0 -0 -0 -0 -0 -0 -0 -0 -0 -0 -0 -0 -0 -0 -0 -0 -0 -0 -0 -0 -0 -0 -0 -0 -0 -0 -0 -0 -0 -0
-7 -12 -0 -4 -5 -0 -8 -0 -0 -0 -0 -0 -0 -0 -0 -0 -0 -0 -0 -0 -0 -0 -0 -0 -0 -0 -0 -0 -0 -0 -0 -0 -0 -0 -0 -0 -0 -0 -0 -0 -0 -0 -0 -0 -0 -0 -0
-9 -10 -11 -5 -1 -6 -5 -5 -0 -0 -0 -0 -0 -0 -0 -0 -0 -0 -0 -0 -0 -0 -0 -0 -0 -0 -0 -0 -0 -0 -0 -0 -0 -0 -0 -0 -0 -0 -0 -0 -0 -0 -0 -0 -0 -0 -0
-7 -8 -10 -8 -1 -1 -0 -0 -0 -0 -0 -0 -0 -0 -0 -0 -0 -0 -0 -0 -0 -0 -0 -0 -0 -0 -0 -0 -0 -0 -0 -0 -0 -0 -0 -0 -0 -0 -0 -0 -0 -0 -0 -0 -0 -0 -0
-22 -29 -0 -0 -0 -0 -0 -0 -0 -0 -0 -0 -0 -0 -0 -0 -0 -0 -0 -0 -0 -0 -0 -0 -0 -0 -0 -0 -0 -0 -0 -0 -0 -0 -0 -0 -0 -0 -0 -0 -0 -0 -0 -0 -0 -0 -0
Wind_Speed
33 33 33 33 31 28 28 25 22 20 19 18 18 20 25 27 26 21 21 25 23 20 17 13 11 10 11 15 18 17 15 15 15 16 14 19 24 25 25 26 30 38 35 29 27 26 28
33 34 34 34 32 29 28 26 23 21 19 17 17 19 23 25 25 21 20 21 22 17 15 13 11 9 10 10 11 16 18 16 15 16 22 20 28 28 25 34 30 33 29 28 28 27 26
33 33 34 34 33 29 27 26 25 21 20 18 17 18 21 24 23 24 20 21 18 14 12 9 10 14 11 12 11 12 13 14 14 17 18 14 12 24 19 39 28 20 26 28 30 28 28
32 33 33 33 32 29 27 26 24 21 19 18 16 16 19 23 24 21 22 19 14 12 11 10 10 13 17 13 10 10 13 12 13 14 15 19 24 26 33 17 16 24 26 36 31 30 28
31 32 33 32 30 28 26 26 24 19 16 15 14 14 15 20 22 21 21 19 14 9 10 9 10 14 18 14 14 11 14 10 5 13 21 21 22 15 14 19 20 30 37 36 34 31 29
30 31 33 32 29 26 24 25 25 21 16 13 11 11 12 14 17 16 13 14 12 10 14 11 6 10 20 14 17 13 17 12 19 19 21 11 28 10 23 17 26 32 37 32 35 32 29
29 31 32 30 29 25 22 22 23 22 18 13 10 9 9 9 11 14 17 18 17 19 19 26 16 13 15 13 18 18 17 14 16 17 22 12 16 14 17 16 21 31 33 31 27 25 28
27 29 31 28 26 22 20 20 20 22 20 15 10 9 7 5 7 9 14 21 22 19 26 24 25 23 12 16 18 16 15 13 17 19 12 6 7 11 17 15 19 25 32 26 22 23 24
26 27 30 31 27 18 17 16 15 17 18 17 12 9 9 6 8 13 17 17 14 16 21 20 18 19 13 12 15 8 8 10 9 13 3 9 14 13 12 12 17 17 24 27 28 23 19
27 27 29 30 26 12 12 11 11 11 14 14 14 12 11 11 17 16 16 15 14 16 21 17 13 16 13 15 21 13 12 11 18 16 6 7 10 15 10 17 15 20 16 18 23 24 26
26 28 30 31 31 9 8 11 11 10 7 10 14 14 14 17 16 17 17 15 16 17 31 11 14 13 12 15 11 12 14 14 6 15 14 11 9 9 12 18 18 17 16 14 19 20 20
24 25 29 32 33 32 16 17 15 14 11 5 13 14 14 16 19 17 16 17 17 23 30 17 15 12 14 12 14 12 14 16 15 10 11 12 15 13 14 18 17 17 15 14 14 16 23
22 24 27 31 32 31 29 25 21 20 15 4 12 13 17 15 17 16 17 17 22 28 17 18 18 12 12 12 12 11 13 18 22 22 16 14 13 16 15 19 17 15 15 19 21 23 22
21 23 26 28 33 32 30 31 28 26 23 10 10 13 17 18 16 17 17 19 26 22 22 16 15 11 19 12 15 12 17 19 13 18 18 18 20 16 14 17 15 11 11 16 21 22 21
22 22 24 26 30 32 31 31 30 30 27 16 13 15 17 17 16 17 17 21 20 19 17 14 13 18 20 15 16 15 17 16 13 11 22 24 24 20 17 16 17 14 11 11 13 15 18
23 23 23 24 27 32 32 31 30 32 30 25 15 15 18 16 17 17 19 20 18 16 15 15 18 17 19 17 17 17 17 10 11 9 13 18 24 20 20 20 16 11 13 13 13 17 19
23 23 23 24 26 30 32 33 31 31 30 23 17 16 17 17 17 19 21 20 19 16 14 16 17 17 18 16 16 18 17 15 9 9 10 13 20 19 20 20 14 10 10 12 13 15 18
24 22 22 23 26 28 31 32 33 32 30 20 19 15 18 17 20 20 19 20 18 19 18 17 16 15 16 16 18 18 17 15 10 12 15 12 18 19 11 19 11 12 13 14 17 19 19
23 21 22 23 25 28 29 30 32 32 31 23 18 17 17 17 14 19 18 18 18 18 18 18 17 17 17 16 17 16 16 12 10 11 13 12 15 18 14 14 14 15 14 15 14 16 21
23 21 22 24 25 26 28 29 30 32 29 20 20 16 18 17 17 15 15 15 17 17 17 17 18 17 17 18 18 18 17 15 13 13 12 13 15 16 16 16 17 18 17 16 16 21 24
23 22 22 23 24 25 27 27 29 31 29 19 20 19 18 17 17 16 17 14 14 15 15 15 15 16 16 15 16 17 16 16 15 14 14 13 12 12 13 15 15 14 6 10 12 15 26
24 24 23 22 23 23 24 26 27 30 28 18 20 20 19 19 18 16 14 13 11 14 12 12 13 14 15 14 15 13 14 16 17 16 15 15 12 11 7 16 22 21 21 18 14 7 11
26 24 24 23 23 23 23 24 25 27 25 20 17 16 19 19 20 16 15 12 13 15 15 15 14 14 13 15 15 15 15 14 13 16 17 17 17 19 4 20 30 5 11 3 12 18 16
27 26 24 24 23 22 21 22 23 23 23 20 20 18 20 23 21 20 19 18 14 15 17 14 16 16 17 17 18 14 15 13 14 15 16 18 18 19 20 25 18 21 18 19 23 27 20
29 27 26 25 24 21 21 21 21 21 22 20 20 19 20 24 21 23 19 18 18 17 16 17 16 17 19 20 20 19 18 20 17 18 16 14 17 21 21 20 27 28 24 25 24 25 26
31 29 27 27 26 23 22 20 20 20 21 21 20 20 21 22 23 21 19 19 19 17 18 18 18 17 17 19 20 22 23 22 20 20 20 17 17 22 23 26 27 24 22 22 25 31 27
32 30 29 27 26 24 22 21 20 19 19 20 21 19 21 24 21 20 21 20 19 21 22 19 18 19 19 21 22 23 24 21 25 25 23 22 22 22 24 29 28 25 23 24 31 31 25
30 29 27 26 25 25 24 23 20 18 18 20 22 20 21 24 24 20 19 20 19 19 22 19 22 22 22 23 24 25 25 24 26 24 24 24 25 25 24 30 36 24 25 30 26 26 29
28 27 27 26 25 24 25 24 22 19 18 19 23 20 20 24 24 21 21 21 21 20 21 20 22 21 20 21 22 23 25 25 27 31 25 29 24 26 25 27 24 24 28 27 28 32 33
Wind_Direction
31 36 38 39 41 45 44 46 49 50 51 53 51 46 39 36 37 45 52 49 56 64 76 94 122 145 132 307 305 305 304 307 290 264 254 235 230 233 231 220 220 226 231 240 234 229 221
27 33 36 36 39 44 45 47 50 51 51 54 54 51 43 40 42 52 63 65 67 91 102 113 140 154 149 223 243 285 301 304 296 272 239 238 221 230 238 222 217 222 234 233 231 221 219
25 31 34 35 38 44 46 46 47 51 51 55 58 55 48 44 46 53 67 70 86 105 108 139 145 126 338 131 158 133 215 218 284 237 237 247 244 232 236 200 219 222 222 226 225 220 222
24 29 31 35 38 44 47 45 46 50 52 54 60 58 54 49 51 60 64 74 92 111 114 132 145 129 101 126 146 178 184 235 256 237 214 206 215 226 226 224 218 218 217 213 219 220 229
23 25 25 33 39 44 46 44 43 48 53 57 62 63 60 55 58 66 70 73 85 114 128 138 131 115 91 122 103 151 155 248 231 214 203 191 208 243 228 215 214 214 210 213 217 224 224
22 21 20 31 39 44 46 43 42 44 50 59 65 69 66 62 61 65 74 76 91 86 113 146 133 130 93 102 99 132 135 178 166 182 201 239 163 236 211 217 214 209 210 215 215 220 220
21 17 19 31 37 44 45 44 42 43 46 57 67 75 74 72 72 69 72 74 86 97 91 88 109 111 113 124 127 129 138 159 173 184 183 225 216 218 218 234 227 210 215 216 214 220 217
21 19 20 32 38 44 45 43 42 42 45 53 66 75 76 89 95 91 85 77 89 104 87 98 96 102 128 129 126 132 142 160 147 176 225 303 246 245 237 240 219 219 220 209 214 217 222
19 22 18 20 32 45 43 39 38 40 45 50 61 71 72 96 115 97 84 94 119 118 98 101 104 100 130 129 129 164 226 195 210 203 307 246 227 241 235 224 213 220 207 209 210 213 232
9 14 14 16 30 42 36 25 19 24 45 54 60 70 77 98 95 100 100 109 130 126 101 95 103 100 123 127 94 126 152 200 139 180 304 242 259 221 232 204 222 210 220 210 202 210 223
0 6 5 4 13 314 333 326 338 344 20 60 62 70 83 88 96 102 105 120 130 126 78 104 106 118 120 126 143 126 126 154 246 195 206 208 227 220 209 209 217 212 219 210 202 222 229
4 7 360 353 340 330 308 314 319 324 323 64 68 70 84 93 90 109 119 125 121 90 80 103 111 114 116 124 125 139 136 146 160 171 172 192 193 200 200 197 199 205 207 210 223 231 229
3 6 360 349 334 325 318 315 314 317 315 284 79 78 77 93 95 112 121 118 89 80 105 100 105 114 122 122 129 135 136 135 136 150 176 181 184 184 196 193 196 212 213 209 220 227 236
0 0 359 359 338 324 318 322 317 317 315 284 98 84 80 82 101 114 113 99 81 94 97 115 113 117 103 122 121 129 136 132 144 148 158 171 173 181 199 188 209 223 232 226 224 231 242
351 356 357 359 349 320 316 320 319 321 317 289 85 78 72 79 96 107 101 83 93 98 107 113 118 107 106 118 126 133 130 138 147 162 142 146 152 175 182 190 200 226 244 267 252 259 253
340 348 354 359 353 331 318 317 317 322 320 325 67 69 63 84 94 93 85 92 102 111 111 112 101 110 103 111 120 126 127 158 162 183 186 166 149 164 172 172 182 236 240 262 272 252 257
329 339 348 354 351 337 328 325 319 321 320 356 38 57 60 83 87 76 83 94 94 113 121 109 103 108 108 118 122 124 130 149 181 198 199 183 151 156 164 161 200 254 293 300 298 286 272
321 331 341 347 346 339 329 330 327 326 320 11 3 55 44 71 43 58 87 88 98 94 102 105 108 112 110 113 112 125 130 146 196 178 154 184 155 170 261 166 313 322 313 314 290 285 293
313 322 330 336 341 337 331 331 332 331 343 355 3 14 20 32 329 42 71 77 87 93 93 95 99 103 107 110 111 116 124 169 227 183 167 184 181 159 267 215 260 312 329 317 323 319 296
303 313 320 326 332 333 332 331 332 329 339 5 344 4 345 357 354 20 50 67 73 80 87 91 92 97 101 98 98 100 107 116 134 142 195 196 165 155 144 175 311 317 324 324 316 305 302
295 302 311 319 323 328 326 329 329 328 330 359 342 332 326 337 341 340 343 17 50 57 74 85 90 90 92 104 97 94 94 94 99 114 122 125 153 187 188 201 197 196 205 339 320 308 302
287 294 302 309 316 322 326 325 327 327 326 348 332 323 324 313 318 324 348 354 15 9 39 62 77 70 70 79 73 88 74 73 67 69 67 67 94 77 141 7 318 240 231 216 215 235 238
280 286 293 300 307 313 319 322 327 328 330 332 339 341 321 314 309 322 331 342 338 337 345 350 4 17 27 22 28 27 29 31 33 22 14 12 9 360 78 348 303 238 360 356 340 327 327
273 279 285 292 299 304 311 315 322 330 331 324 324 327 315 304 304 307 313 311 323 324 328 337 339 342 348 351 351 4 359 3 0 357 352 347 348 346 343 335 342 338 343 334 325 319 322
266 273 278 284 290 295 301 306 313 321 325 319 316 315 312 300 307 303 306 309 313 318 321 322 327 333 336 335 340 342 344 344 351 349 348 346 342 340 339 334 323 321 330 326 326 325 327
263 266 272 278 282 286 290 295 303 311 316 315 311 311 307 302 300 305 304 307 307 311 315 318 323 330 331 327 328 326 325 330 335 340 344 339 333 330 328 324 326 331 335 335 329 314 324
261 264 268 272 277 279 283 287 292 302 307 307 307 310 303 296 303 303 298 302 307 307 309 315 318 318 322 318 315 315 315 323 319 321 326 326 325 315 315 316 320 330 331 332 316 318 329
258 262 265 268 272 273 277 281 285 291 298 298 300 303 300 294 297 301 302 301 305 307 306 312 312 312 311 309 311 311 311 315 316 318 320 318 317 316 317 314 313 331 328 319 323 326 323
255 259 264 267 271 273 274 277 279 280 287 292 295 299 299 293 296 302 299 301 303 306 306 306 307 312 315 312 314 315 312 314 314 310 318 312 310 316 316 318 324 324 320 320 318 316 319